Regional Weather Roundup
Issued by NWS

Home | Current Version | Previous Version | Text Only | Print | Product List | Glossary On
Versions: 1 2 3 4 5 6 7 8 9 10 11 12 13 14 15 16 17 18 19 20 21 22 23 24 25 26 27 28 29 30 31 32 33 34 35 36 37 38 39 40 41 42 43 44 45 46 47 48 49 50
000
ASUS43 KMPX 181610
RWRMN
WEATHER ROUNDUP FOR MINNESOTA
NATIONAL WEATHER SERVICE TWIN CITIES/CHANHASSEN MN
1100 AM CDT FRI APR 18 2014


NOTE: "FAIR" INDICATES FEW OR NO CLOUDS BELOW 12,000 FEET WITH NO
SIGNIFICANT WEATHER AND/OR OBSTRUCTIONS TO VISIBILITY. N/A MEANS
CURRENT SKY AND/OR WEATHER CONDITIONS ARE NOT AVAILABLE.

MNZ060>063-068>070-181700-
   Twin Cities Metro

CITY           SKY/WX    TMP DP  RH WIND       PRES   REMARKS
TWIN CITIES    MOSUNNY   41  29  62 SE10      30.37R
ST PAUL        MOSUNNY   42  30  62 S8        30.39S
CRYSTAL        MOSUNNY   40  28  62 E8        30.36R
BLAINE         PTSUNNY   41  30  65 SE8       30.37R
EDEN PRAIRIE   MOSUNNY   44  30  57 SE7       30.36R
LAKEVILLE      MOSUNNY   41  30  65 SE12      30.35S
SOUTH ST PAUL  MOSUNNY   43  31  63 S3        30.37S
LAKE ELMO      FAIR      41  32  70 E7        30.38R
$$
MNZ001>005-007-008-013>017-022>024-027-028-181700-
   Northwest Minnesota

CITY           SKY/WX    TMP DP  RH WIND       PRES   REMARKS
BEMIDJI        CLOUDY    40  20  45 SE16      30.31R
HALLOCK        CLOUDY    43  18  36 SE17      30.28S
ROSEAU         SUNNY     43  10  26 SE15      30.31S
WARROAD        SUNNY     36  21  55 NE9       30.33S
THIEF RVR FALL CLOUDY    39  21  48 SE13      30.29S
CROOKSTON      PTSUNNY   43  21  42 SE14      30.27F
FOSSTON        MOSUNNY   41  25  52 E13       30.28F
DETROIT LAKES  MOSUNNY   41  21  45 SE15      30.27S
MOORHEAD       PTSUNNY   41  27  56 SE14      30.26S
PARK RAPIDS    CLOUDY    38  20  48 SE9       30.30R
$$
MNZ006-009>011-018-025>026-181700-
   North Central Minnesota

CITY           SKY/WX    TMP DP  RH WIND       PRES   REMARKS
BAUDETTE       SUNNY     39  20  46 SE10      30.33F
FLAG ISLAND    SUNNY     36  18  48 SE6       30.34S
INTL FALLS     SUNNY     38  14  37 SE10      30.36S
WASKISH        SUNNY     45  19  36 E8        30.33S
BIG FORK       SUNNY     43  16  33 SE8       30.35S
LONGVILLE      PTSUNNY   43  19  39 SE7G16    30.33S
GRAND RAPIDS   SUNNY     39  12  33 SE10G16   30.35S
CRANE LAKE     SUNNY     39  19  45 E3        30.41S
ORR            SUNNY     37  10  32 SE6       30.36R
COOK           SUNNY     37  16  41 E7        30.38S
$$
MNZ012-019>021-037-181700-
   Northeast Minnesota

CITY           SKY/WX    TMP DP  RH WIND       PRES   REMARKS
DULUTH         MOSUNNY   36  18  48 SE9       30.37S
ELY            SUNNY     34  19  55 CALM      30.37F
HIBBING        SUNNY     39  15  37 E5        30.37S
EVELETH        SUNNY     39  12  33 NE5       30.38S
DULUTH HARBOR  SUNNY     34  27  75 CALM      30.43S
TWO HARBORS    SUNNY     34  21  60 SE8       30.38R WCI  27
SILVER BAY     SUNNY     37  25  60 NE6       30.38R
GRAND MARAIS     N/A     36  26  67 S7        30.40S
G MARAIS ARPRT MOSUNNY   32  18  55 N10       30.36R WCI  24
$$
MNZ029>031-032-039>041-046>048-054>057-064-181700-
   West Central Minnesota

CITY           SKY/WX    TMP DP  RH WIND       PRES   REMARKS
FERGUS FALLS   PTSUNNY   39  19  45 SE17      30.25S
WHEATON        PTSUNNY   43  30  61 SE24      30.26F
MORRIS         MOSUNNY   37  30  75 SE20      30.27S
ALEXANDRIA     CLOUDY    37  26  64 SE14G21   30.30S
ELBOW LAKE     CLOUDY    38  26  61 SE13G21   30.27S
WADENA         PTSUNNY   37  23  56 SE12      30.30S
GLENWOOD       MOSUNNY   37  27  65 SE16      30.31R
APPLETON       PTSUNNY   39  30  70 SE16      30.27F
BENSON         PTSUNNY   39  28  65 S14       30.30S
ORTONVILLE     PTSUNNY   37  28  70 SE18G26   30.24F
MADISON        CLOUDY    39  34  81 SE16G22   30.26S
WILLMAR        FAIR      37  28  70 SE13      30.33S
$$
MNZ033>034-036-042>043-049>051-058-059-181700-
   Central Minnesota

CITY           SKY/WX    TMP DP  RH WIND       PRES   REMARKS
ST CLOUD       CLOUDY    38  25  59 SE8       30.35S
SAUK CENTRE    FAIR      38  27  64 SE15      30.33R
PAYNESVILLE    PTSUNNY   38  26  62 SE12G17   30.33S
AITKIN         MOSUNNY   43  21  42 SE7       30.34R
PINE RIVER     PTSUNNY   39  25  56 SE10      30.36R
BRAINERD       MOSUNNY   44  22  41 SE7       30.34S
STAPLES        CLOUDY    37  21  52 SE7       30.31S
LONG PRAIRIE   FAIR      36  27  69 SE8       30.32R
LITTLE FALLS   MOSUNNY   36  25  64 E7        30.34R
LITCHFIELD     MOSUNNY   37  30  75 SE8       30.34S
BUFFALO        PTSUNNY   40  26  57 SE7       30.37R
MAPLE LAKE     PTSUNNY   41  29  62 SE7       30.37R
$$
MNZ037-044-045-052-053-181700-
   East Central Minnesota

CITY           SKY/WX    TMP DP  RH WIND       PRES   REMARKS
PRINCETON      MOSUNNY   39  27  60 E6        30.37R
MORA           MOSUNNY   37  23  56 E6        30.39R
CAMBRIDGE      PTSUNNY   41  27  56 E5        30.35R
RUSH CITY      MOSUNNY   39  26  59 NE3       30.38S
MOOSE LAKE     PTSUNNY   41  18  38 E6        30.36S
HINCKLEY       FAIR      39  27  60 E6        30.38S
CLOQUET        SUNNY     37  14  38 E7        30.38R
MCGREGOR       MOSUNNY   41  21  45 E8        30.36S
$$
MNZ071>073-080-081-089-090-097-098-181700-
   Southwest Minnesota

CITY           SKY/WX    TMP DP  RH WIND       PRES   REMARKS
MONTEVIDEO     PTSUNNY   36  30  80 SE15      30.29F
GRANITE FALLS  CLOUDY    37  30  77 E13       30.30F
CANBY          CLOUDY    36  32  87 SE16      30.25F
MARSHALL       CLOUDY    39  30  70 SE15      30.26S
REDWOOD FALLS  CLOUDY    41  33  73 SE17      30.31S
OLIVIA         CLOUDY    36  32  87 SE8       30.31S
PIPESTONE      CLOUDY    43  34  70 SE20      30.19F
WINDOM         CLOUDY    41  32  70 SE14      30.29S
WORTHINGTON    CLOUDY    45  28  53 SE17      30.28R
JACKSON        PTSUNNY   43  32  65 SE15      30.29S
TRACY          CLOUDY    40  34  77 SE13      30.28R
SLAYTON        CLOUDY    40  34  80 SE18      30.26S
$$
MNZ065>067-074>077-082>085-091>093-181700-
   South Central Minnesota

CITY           SKY/WX    TMP DP  RH WIND       PRES   REMARKS
MANKATO        MOSUNNY   41  30  65 S9        30.36R
NEW ULM        PTSUNNY   41  34  75 S10       30.33S
ST JAMES       CLOUDY    43  34  70 SE12G18   30.34R
FAIRMONT       CLOUDY    39  30  70 SE15      30.34R
GLENCOE        CLOUDY    43  29  58 SE12      30.34S
FARIBAULT      MOSUNNY   43  28  56 E10       30.36R
OWATONNA       MOSUNNY   41  30  65 SE15      30.35S
WASECA         MOSUNNY   43  32  65 E13       30.36R
ALBERT LEA     MOSUNNY   43  30  61 SE14      30.34R
$$
MNZ078>079-086>088-094>096-181700-
   Southeast Minnesota

CITY           SKY/WX    TMP DP  RH WIND       PRES   REMARKS
ROCHESTER      PTSUNNY   41  28  60 E12       30.36S
RED WING       MOSUNNY   43  30  61 SE8       30.37S
STANTON        PTSUNNY   42  29  58 SE8       30.35S
DODGE CENTER   MOSUNNY   43  32  65 SE10      30.35S
WINONA         MOSUNNY   41  30  65 CALM      30.39S
AUSTIN         SUNNY     41  32  70 SE9       30.34F
PRESTON        SUNNY     41  28  60 E7        30.36F
$$
ABBREVIATIONS USED IN REMARKS
   TC - TEMPERATURES IN CELSIUS
  WCI - WIND CHILL INDEX
   HX - HEAT INDEX
  VSB - VISIBILITY
$$



USA.gov is the U.S. government's official web portal to all federal, state and local government web resources and services.